Location: Avully
(45.9633°N, 6.0228°E)
Time: 09:36:57
(UTC+00:00)

EXPRESS MD2 - Pass Details

Date: 23 May 2024
Orbit: 262 x 3334 km, 49.9° (Epoch: 14 June)

Event Time Altitude Azimuth Distance (km) Brightness Sun altitude
Exits shadow 01:30:20 45° 136° (SE) 542 3.1 -18.2°
Drops below altitude 10° 01:33:52 10° 72° (ENE) 1,828 6.6 -17.9°
Sets 01:36:55 0° 67° (ENE) 3,164 8.1 -17.7°
